Weather History for Plattsmouth, NE

Change the Weather History Date:

Wednesday, November 27, 2013

  Actual Average (KOFF) Record (KOFF)
Temperature  
Mean Temperature 21 °F -  
Max Temperature 32 °F 43 °F 69 °F (1998)
Min Temperature 10 °F 26 °F 10 °F (2002)
Degree Days  
Heating Degree Days 44    
Moisture  
Dew Point 11 °F    
Average Humidity 62    
Maximum Humidity 85    
Minimum Humidity 39    
Precipitation  
Precipitation 0.00 in - - ()
Sea Level Pressure  
Sea Level Pressure 30.25 in    
Wind  
Wind Speed 7 mph (SSW)    
Max Wind Speed 17 mph    
Max Gust Speed 23 mph    
Visibility 10 miles    
Events      
Averages and records for this station are not official NWS values.
T = Trace of Precipitation, MM = Missing Value Source: NWS Daily Summary

Daily Weather History Graph

Daily Weather History Graph

Search for Another Location

Airport:

Trip Planner

Search our weather history database for the weather conditions in past years. The results will help you decide how hot, cold, wet, or windy it might be!

Date:

Astronomy

Nov. 27, 2013 Rise Set
Actual Time 7:25 AM CST 4:57 PM CST
Civil Twilight 6:54 AM CST 5:27 PM CST
Nautical Twilight 6:20 AM CST 6:01 PM CST
Astronomical Twilight 5:47 AM CST 6:34 PM CST
Moon 1:25 AM CST (11/27) 1:37 PM CST (11/27)
Length of Visible Light 10h 33m
Length of Day
9h 32m
Waning Crescent, 31% of the Moon is Illuminated
Nov 27
Waning Crescent
Dec 2
New
Dec 9
First Quarter
Dec 17
Full
Dec 25
Last Quarter

Hourly Weather History & Observations

Time (CST) Temp. Windchill Dew Point Humidity Pressure Visibility Wind Dir Wind Speed Gust Speed Precip Events Conditions
12:15 AM 16.9 °F 8.5 °F 8.8 °F 71% 30.40 in 10.0 mi NW 5.8 mph - N/A   Clear
12:35 AM 15.6 °F 5.9 °F 8.6 °F 74% 30.40 in 10.0 mi NW 6.9 mph - N/A   Clear
12:55 AM 16.0 °F 5.3 °F 8.6 °F 73% 30.41 in 10.0 mi WNW 8.1 mph - N/A   Clear
1:15 AM 15.1 °F 7.7 °F 8.4 °F 75% 30.40 in 10.0 mi WNW 4.6 mph - N/A   Clear
1:35 AM 15.1 °F 9.4 °F 8.2 °F 74% 30.40 in 10.0 mi WNW 3.5 mph - N/A   Clear
1:55 AM 14.5 °F 8.8 °F 8.1 °F 75% 30.40 in 10.0 mi NW 3.5 mph - N/A   Clear
2:15 AM 13.3 °F 7.3 °F 7.7 °F 78% 30.40 in 10.0 mi NW 3.5 mph - N/A   Clear
2:35 AM 13.5 °F 5.8 °F 7.5 °F 77% 30.39 in 10.0 mi NW 4.6 mph - N/A   Clear
2:55 AM 12.6 °F 4.8 °F 7.9 °F 82% 30.40 in 10.0 mi WNW 4.6 mph - N/A   Clear
3:15 AM 13.1 °F 5.4 °F 7.7 °F 79% 30.39 in 10.0 mi West 4.6 mph - N/A   Clear
3:35 AM 11.5 °F 2.1 °F 6.6 °F 81% 30.40 in 10.0 mi WNW 5.8 mph - N/A   Clear
3:55 AM 12.2 °F 4.3 °F 7.0 °F 80% 30.39 in 10.0 mi West 4.6 mph - N/A   Clear
4:15 AM 12.2 °F 1.7 °F 7.3 °F 81% 30.40 in 10.0 mi WNW 6.9 mph - N/A   Clear
4:35 AM 12.7 °F 5.0 °F 7.5 °F 80% 30.39 in 10.0 mi WNW 4.6 mph - N/A   Clear
4:55 AM 11.7 °F 3.7 °F 6.8 °F 81% 30.39 in 10.0 mi West 4.6 mph - N/A   Clear
5:15 AM 12.2 °F 4.3 °F 7.5 °F 82% 30.39 in 10.0 mi West 4.6 mph - N/A   Clear
5:35 AM 12.0 °F 2.7 °F 7.3 °F 81% 30.39 in 10.0 mi West 5.8 mph - N/A   Clear
5:55 AM 12.0 °F 2.7 °F 7.3 °F 81% 30.39 in 10.0 mi WNW 5.8 mph - N/A   Clear
6:15 AM 11.3 °F 1.9 °F 6.8 °F 82% 30.40 in 10.0 mi WNW 5.8 mph - N/A   Clear
6:35 AM 10.9 °F 4.7 °F 7.0 °F 84% 30.39 in 10.0 mi WNW 3.5 mph - N/A   Clear
6:55 AM 10.0 °F 1.8 °F 6.3 °F 85% 30.39 in 10.0 mi West 4.6 mph - N/A   Clear
7:15 AM 10.0 °F 1.8 °F 6.4 °F 85% 30.39 in 10.0 mi West 4.6 mph - N/A   Clear
7:35 AM 10.2 °F 2.0 °F 6.6 °F 85% 30.38 in 10.0 mi West 4.6 mph - N/A   Clear
7:55 AM 10.9 °F - 7.2 °F 85% 30.38 in 10.0 mi Calm Calm - N/A   Clear
8:15 AM 13.1 °F - 9.3 °F 85% 30.38 in 10.0 mi Calm Calm - N/A   Clear
8:35 AM 14.7 °F 9.0 °F 10.2 °F 82% 30.39 in 10.0 mi WSW 3.5 mph - N/A   Clear
8:55 AM 16.5 °F - 11.3 °F 80% 30.39 in 10.0 mi Calm Calm - N/A   Clear
9:15 AM 18.0 °F - 11.1 °F 75% 30.39 in 10.0 mi Calm Calm - N/A   Clear
9:35 AM 19.9 °F 14.9 °F 11.3 °F 69% 30.38 in 10.0 mi South 3.5 mph - N/A   Clear
9:55 AM 21.2 °F 14.9 °F 11.1 °F 65% 30.37 in 10.0 mi SE 4.6 mph - N/A   Clear
10:15 AM 22.3 °F 16.1 °F 12.0 °F 65% 30.37 in 10.0 mi SE 4.6 mph - N/A   Clear
10:35 AM 23.4 °F 16.2 °F 11.7 °F 61% 30.36 in 10.0 mi South 5.8 mph - N/A   Clear
10:55 AM 24.3 °F 15.4 °F 11.7 °F 59% 30.35 in 10.0 mi South 8.1 mph - N/A   Clear
11:15 AM 25.3 °F 17.6 °F 11.8 °F 57% 30.34 in 10.0 mi South 6.9 mph - N/A   Clear
11:35 AM 26.2 °F 17.1 °F 11.8 °F 55% 30.32 in 10.0 mi South 9.2 mph - N/A   Clear
11:55 AM 27.3 °F 17.7 °F 11.8 °F 52% 30.31 in 10.0 mi South 10.4 mph - N/A   Clear
12:15 PM 28.4 °F 18.5 °F 10.4 °F 47% 30.29 in 10.0 mi South 11.5 mph - N/A   Clear
12:35 PM 29.5 °F 21.8 °F 9.3 °F 43% 30.28 in 10.0 mi South 8.1 mph - N/A   Clear
12:55 PM 30.2 °F 21.3 °F 9.3 °F 42% 30.26 in 10.0 mi South 10.4 mph - N/A   Clear
1:15 PM 30.2 °F 19.8 °F 9.7 °F 42% 30.24 in 10.0 mi South 13.8 mph - N/A   Clear
1:35 PM 31.3 °F 22.1 °F 10.9 °F 43% 30.23 in 10.0 mi South 11.5 mph 17.3 mph N/A   Clear
1:55 PM 31.8 °F 21.8 °F 10.4 °F 41% 30.21 in 10.0 mi South 13.8 mph - N/A   Clear
2:15 PM 32.0 °F 22.1 °F 10.0 °F 40% 30.19 in 10.0 mi South 13.8 mph 19.6 mph N/A   Clear
2:35 PM 32.2 °F 21.4 °F 9.5 °F 39% 30.18 in 10.0 mi South 16.1 mph 20.7 mph N/A   Clear
2:55 PM 32.4 °F 21.3 °F 10.4 °F 40% 30.17 in 10.0 mi SSE 17.3 mph - N/A   Clear
3:15 PM 32.5 °F 22.7 °F 10.4 °F 40% 30.16 in 10.0 mi SSE 13.8 mph 23.0 mph N/A   Clear
3:35 PM 32.5 °F 21.9 °F 10.4 °F 40% 30.15 in 10.0 mi South 16.1 mph - N/A   Clear
3:55 PM 32.4 °F 21.3 °F 11.1 °F 41% 30.13 in 10.0 mi South 17.3 mph 23.0 mph N/A   Clear
4:15 PM 32.0 °F 21.6 °F 11.3 °F 42% 30.13 in 10.0 mi South 15.0 mph 23.0 mph N/A   Clear
4:35 PM 31.5 °F 20.9 °F 11.1 °F 43% 30.11 in 10.0 mi SSE 15.0 mph 20.7 mph N/A   Clear
4:55 PM 30.9 °F 20.2 °F 11.7 °F 45% 30.09 in 10.0 mi SSE 15.0 mph 21.9 mph N/A   Clear
5:15 PM 30.2 °F 19.3 °F 12.2 °F 47% 30.09 in 10.0 mi SSE 15.0 mph 19.6 mph N/A   Clear
5:35 PM 30.2 °F 18.9 °F 12.6 °F 48% 30.08 in 10.0 mi SSE 16.1 mph 21.9 mph N/A   Clear
5:55 PM 30.0 °F 19.5 °F 12.9 °F 49% 30.07 in 10.0 mi South 13.8 mph - N/A   Clear
6:15 PM 29.8 °F 19.3 °F 13.1 °F 50% 30.08 in 10.0 mi South 13.8 mph 20.7 mph N/A   Clear
6:35 PM 29.8 °F 19.3 °F 13.1 °F 50% 30.08 in 10.0 mi South 13.8 mph - N/A   Clear
6:55 PM 30.2 °F 18.9 °F 13.1 °F 49% 30.06 in 10.0 mi South 16.1 mph - N/A   Clear
7:15 PM 30.2 °F 19.8 °F 13.5 °F 50% 30.06 in 10.0 mi South 13.8 mph - N/A   Clear
7:35 PM 29.3 °F 18.2 °F 13.5 °F 52% 30.06 in 10.0 mi South 15.0 mph - N/A   Clear
7:55 PM 29.8 °F 20.3 °F 13.6 °F 51% 30.07 in 10.0 mi South 11.5 mph - N/A   Clear
8:15 PM 29.5 °F 19.9 °F 14.0 °F 53% 30.06 in 10.0 mi South 11.5 mph - N/A   Clear
8:35 PM 29.3 °F 20.2 °F 13.8 °F 53% 30.06 in 10.0 mi SSE 10.4 mph - N/A   Clear
8:55 PM 28.4 °F 19.1 °F 14.0 °F 55% 30.05 in 10.0 mi SSE 10.4 mph - N/A   Clear
9:15 PM 28.0 °F 19.3 °F 14.0 °F 56% 30.04 in 10.0 mi SSE 9.2 mph - N/A   Clear
9:35 PM 27.5 °F 18.6 °F 14.0 °F 57% 30.04 in 10.0 mi South 9.2 mph - N/A   Clear
9:55 PM 27.3 °F 19.1 °F 14.4 °F 58% 30.04 in 10.0 mi South 8.1 mph - N/A   Clear
10:15 PM 27.0 °F 18.7 °F 14.5 °F 60% 30.04 in 10.0 mi South 8.1 mph - N/A   Clear
10:35 PM 26.8 °F 17.1 °F 15.1 °F 61% 30.04 in 10.0 mi South 10.4 mph - N/A   Clear
10:55 PM 27.5 °F 20.2 °F 15.4 °F 61% 30.05 in 10.0 mi SSW 6.9 mph - N/A   Clear
11:15 PM 28.4 °F 20.4 °F 16.2 °F 60% 30.05 in 10.0 mi SSW 8.1 mph - N/A   Clear
11:35 PM 28.4 °F 19.1 °F 16.7 °F 62% 30.05 in 10.0 mi SW 10.4 mph - N/A   Clear
11:55 PM 29.3 °F 18.6 °F 17.6 °F 62% 30.05 in 10.0 mi SW 13.8 mph - N/A   Clear